Content
SEND FEEDBACK

Daily
Averages
Monthly
Summary
United States of America

TAMUNING, GUAM


Home > North America > United States > Guam
Elevation: 76 meters     Latitude: 13 29N     Longitude: 144 47E

WEATHER
 
SELECT A DAY
Number of Records: 341,964;   Date Range: 1/1/95 - 7/26/14
 
SHARE

PRINT THIS DATA

[ ← Previous Day ]
WEATHER ALMANAC - 16 MAY, 2014
[ Next Day → ]
[ °F ]   °C
Weather ElementAverageHighLow
Temperature28.1 °C31.3 °C (12:58 pm)26 °C (1:58 am)
Dewpoint24.1 °C25 °C (5:24 pm)23 °C (5:33 am)
Humidity79.2 %89 % (4:33 am)67 % (11:58 am)
Barometer1010.8 hPa1011.9 hPa (8:33 am)1008.8 hPa (2:58 am)
Wind Speed13.8 km/h18.5 km/h (9:13 am)
Weather ElementAverage
Visibility16.1 km
Wind DirectionESE (101.5 °)

Weather ElementTotal
Precipitation---
Cooling Degree Days10.3 (Base 18.3)
Growing Degree Days18.7 (Base 10)
Averaged from 47 records on 16 May, 2014
WEATHER CONDITIONS BREAKOUT
WIND DIRECTION BREAKOUT
WEATHER BY HOUR - 16 MAY, 2014
[ °F ]   °C
Local TimeTemperatureDewpointHumidityBarometerVisibilityWind DirectionWind SpeedGust SpeedPrecipitationEventsConditions
1:58 AM26 °C23.6 °C87 %1009.5 hPa16.1 kmEast (90°)7.4 km/hPartly Cloudy
2:58 AM26 °C23.6 °C87 %1008.8 hPa16.1 kmESE (110°)9.3 km/hPartly Cloudy
3:58 AM26 °C23.7 °C87 %1008.8 hPa16.1 kmEast (100°)9.3 km/hClear
4:33 AM26 °C24 °C89 %1010.2 hPa16.1 kmEast (90°)9.3 km/hMostly Cloudy
4:48 AM26 °C24 °C89 %1010.2 hPa16.1 kmEast (90°)7.4 km/hMostly Cloudy
4:58 AM26 °C24 °C89 %1009.5 hPa16.1 kmEast (80°)9.3 km/hMostly Cloudy
5:03 AM26 °C24 °C89 %1010.2 hPa16.1 kmEast (90°)13 km/hMostly Cloudy
5:28 AM26 °C24 °C89 %1010.2 hPa16.1 kmEast (100°)13 km/hMostly Cloudy
5:33 AM26 °C23 °C83 %1010.2 hPa16.1 kmEast (90°)11.1 km/hMostly Cloudy
5:58 AM26 °C23.5 °C86 %1009.5 hPa16.1 kmEast (90°)13 km/hPartly Cloudy
6:58 AM26.9 °C23.9 °C84 %1009.8 hPa16.1 kmEast (90°)13 km/hPartly Cloudy
7:58 AM28.4 °C23.9 °C76 %1010.2 hPa16.1 kmEast (100°)13 km/hPartly Cloudy
8:08 AM28 °C24 °C79 %1011.5 hPa16.1 kmEast (100°)14.8 km/hMostly Cloudy
8:33 AM28 °C24 °C79 %1011.9 hPa16.1 kmEast (100°)11.1 km/hMostly Cloudy
8:38 AM28 °C24 °C79 %1011.9 hPa16.1 kmEast (100°)14.8 km/hMostly Cloudy
8:43 AM29 °C24 °C74 %1011.9 hPa16.1 kmEast (80°)16.7 km/hMostly Cloudy
8:48 AM29 °C24 °C74 %1011.9 hPa16.1 kmEast (100°)16.7 km/hMostly Cloudy
8:53 AM29 °C24 °C74 %1011.9 hPa16.1 kmEast (90°)16.7 km/hMostly Cloudy
8:58 AM28.7 °C24.1 °C76 %1011.2 hPa16.1 kmEast (90°)16.7 km/hMostly Cloudy
9:13 AM30 °C24 °C70 %1011.9 hPa16.1 kmESE (110°)18.5 km/hMostly Cloudy
9:18 AM30 °C24 °C70 %1011.9 hPa16.1 kmESE (110°)16.7 km/hScattered Clouds
9:53 AM30 °C24 °C70 %1011.9 hPa16.1 kmESE (110°)14.8 km/hScattered Clouds
9:58 AM30.1 °C24.1 °C70 %1011.2 hPa16.1 kmESE (120°)14.8 km/hScattered Clouds
10:13 AM30 °C24 °C70 %1011.9 hPa16.1 kmSE (130°)13 km/hMostly Cloudy
10:18 AM30 °C24 °C70 %1011.9 hPa16.1 kmEast (90°)16.7 km/hScattered Clouds
10:58 AM30.1 °C24.2 °C70 %1011.2 hPa16.1 kmSE (130°)14.8 km/hScattered Clouds
11:58 AM30.9 °C24.2 °C67 %1010.5 hPa16.1 kmESE (110°)14.8 km/hPartly Cloudy
12:58 PM31.3 °C24.5 °C67 %1010.2 hPa16.1 kmEast (100°)16.7 km/hPartly Cloudy
1:58 PM30.4 °C24.4 °C70 %1009.5 hPa16.1 kmESE (110°)14.8 km/hPartly Cloudy
2:58 PM30 °C24.1 °C70 %1009.5 hPa16.1 kmSE (130°)18.5 km/hScattered Clouds
3:58 PM29.7 °C24 °C71 %1009.5 hPa16.1 kmESE (120°)14.8 km/hPartly Cloudy
4:23 PM29 °C24 °C74 %1010.2 hPa16.1 kmEast (90°)14.8 km/hMostly Cloudy
4:33 PM29 °C24 °C74 %1010.2 hPa16.1 kmEast (80°)16.7 km/hScattered Clouds
4:58 PM28.3 °C23.9 °C77 %1009.5 hPa16.1 kmEast (100°)14.8 km/hScattered Clouds
5:24 PM29 °C25 °C79 %1010.5 hPa16.1 kmEast (80°)11.1 km/hRainLight Rain
5:29 PM28 °C25 °C84 %1010.5 hPa16.1 kmEast (90°)16.7 km/hRainLight Rain
5:33 PM28 °C25 °C84 %1010.5 hPa16.1 kmEast (90°)14.8 km/hScattered Clouds
5:58 PM27.8 °C23.9 °C79 %1009.8 hPa16.1 kmEast (100°)14.8 km/h0 mmPartly Cloudy
6:48 PM27 °C24 °C84 %1011.2 hPa16.1 kmEast (100°)16.7 km/hMostly Cloudy
6:53 PM27 °C24 °C84 %1011.2 hPa16.1 kmESE (120°)18.5 km/hMostly Cloudy
6:58 PM27.2 °C24.2 °C84 %1010.2 hPa16.1 kmESE (120°)16.7 km/hMostly Cloudy
7:03 PM27 °C24 °C84 %1011.5 hPa16.1 kmSE (130°)14.8 km/hScattered Clouds
7:58 PM26.8 °C24 °C85 %1011.2 hPa16.1 kmESE (110°)9.3 km/hPartly Cloudy
8:58 PM26.6 °C23.7 °C84 %1011.5 hPa16.1 kmESE (110°)13 km/hClear
9:58 PM26.7 °C24.2 °C86 %1011.9 hPa16.1 kmESE (110°)11.1 km/hPartly Cloudy
10:58 PM26.6 °C24.3 °C87 %1011.9 hPa16.1 kmEast (100°)9.3 km/hPartly Cloudy
11:58 PM26.5 °C24.1 °C87 %1011.9 hPa16.1 kmEast (90°)11.1 km/hPartly Cloudy
Hourly data recorded from PGUA, located 0 kilometers away from Tamuning, Guam







STORIES FROM OUR PARTNERS